Hagerstown, MD

3:39 AM EDT on March 30, 2017 (GMT -0400)
Hagerstown Regional-Henson

Weather History for KHGR - September, 2011

Change the Weather History Date:

Saturday, September 17, 2011

  Actual Average Record
Temperature  
Mean Temperature 55 °F 65 °F  
Max Temperature 62 °F 75 °F 87 °F (2005)
Min Temperature 48 °F 56 °F 42 °F (2007)
Degree Days  
Heating Degree Days 10 2  
Month to date heating degree days 33 16  
Since 1 July heating degree days 33 21  
Cooling Degree Days 0 3  
Month to date cooling degree days 80 72  
Year to date cooling degree days 1261 940  
Growing Degree Days 5 (Base 50)    
Moisture  
Dew Point 46 °F    
Average Humidity 73    
Maximum Humidity 93    
Minimum Humidity 52    
Precipitation  
Precipitation T in 0.14 in 1.49 in (2004)
Month to date precipitation 7.76 1.86  
Year to date precipitation 36.41 28.49  
Sea Level Pressure  
Sea Level Pressure 30.41 in    
Wind  
Wind Speed 4 mph (ENE)    
Max Wind Speed 12 mph    
Max Gust Speed 15 mph    
Visibility 10 miles    
Events      
T = Trace of Precipitation, MM = Missing Value Source: NWS Daily Summary

Daily Weather History Graph

Daily Weather History Graph

Search for Another Location

Airport or City:

Trip Planner

Search our weather history database for the weather conditions in past years. The results will help you decide how hot, cold, wet, or windy it might be!

Date:

Astronomy

Sep. 17, 2011 Rise Set
Actual Time 6:53 AM EDT 7:16 PM EDT
Civil Twilight 6:26 AM EDT 7:43 PM EDT
Nautical Twilight 5:54 AM EDT 8:15 PM EDT
Astronomical Twilight 5:22 AM EDT 8:47 PM EDT
Moon 9:46 PM EDT (9/17) 11:52 AM EDT (9/17)
Length of Visible Light 13h 17m
Length of Day
12h 23m
Waning Gibbous, 77% of the Moon is Illuminated
Sep 17
Waning Gibbous
Sep 20
Last Quarter
Sep 27
New
Oct 3
First Quarter
Oct 11
Full

Hourly Weather History & Observations

Time (EDT) Temp. Dew Point Humidity Pressure Visibility Wind Dir Wind Speed Gust Speed Precip Events Conditions
12:53 AM 50.0 °F 46.9 °F 89% 30.38 in 10.0 mi Calm Calm - N/A   Clear
1:53 AM 51.1 °F 46.9 °F 86% 30.38 in 10.0 mi Calm Calm - N/A   Clear
2:53 AM 52.0 °F 45.0 °F 77% 30.37 in 10.0 mi Calm Calm - N/A   Clear
3:53 AM 50.0 °F 46.9 °F 89% 30.37 in 10.0 mi NW 3.5 mph - N/A   Clear
4:53 AM 48.9 °F 46.0 °F 90% 30.38 in 10.0 mi Calm Calm - N/A   Clear
5:53 AM 48.0 °F 46.0 °F 93% 30.40 in 10.0 mi NNW 4.6 mph - N/A   Clear
8:53 AM 53.1 °F 46.9 °F 80% 30.43 in 10.0 mi NNW 3.5 mph - N/A   Mostly Cloudy
9:53 AM 55.0 °F 45.0 °F 69% 30.45 in 10.0 mi NE 4.6 mph - N/A   Overcast
10:53 AM 57.0 °F 44.1 °F 62% 30.44 in 10.0 mi ENE 5.8 mph - N/A   Overcast
11:53 AM 57.0 °F 42.1 °F 57% 30.45 in 10.0 mi SE 10.4 mph - 0.00 in   Overcast
12:53 PM 57.9 °F 44.1 °F 60% 30.45 in 10.0 mi ESE 6.9 mph - N/A   Mostly Cloudy
1:53 PM 60.1 °F 46.0 °F 60% 30.43 in 10.0 mi SE 5.8 mph - N/A   Scattered Clouds
2:53 PM 60.1 °F 44.1 °F 55% 30.42 in 10.0 mi East 8.1 mph - N/A   Overcast
3:53 PM 61.0 °F 44.1 °F 54% 30.40 in 10.0 mi ESE 6.9 mph - N/A   Overcast
4:53 PM 62.1 °F 44.1 °F 52% 30.40 in 10.0 mi ENE 8.1 mph - N/A   Scattered Clouds
5:53 PM 61.0 °F 45.0 °F 56% 30.40 in 10.0 mi East 6.9 mph - N/A   Partly Cloudy
6:53 PM 59.0 °F 46.9 °F 64% 30.39 in 10.0 mi ENE 4.6 mph - N/A   Clear
7:53 PM 57.0 °F 48.0 °F 72% 30.39 in 10.0 mi East 3.5 mph - N/A   Clear
8:53 PM 57.9 °F 48.0 °F 70% 30.41 in 10.0 mi Calm Calm - N/A   Overcast
9:53 PM 57.0 °F 50.0 °F 77% 30.41 in 10.0 mi ENE 5.8 mph - N/A   Scattered Clouds
10:53 PM 57.0 °F 50.0 °F 77% 30.42 in 10.0 mi East 4.6 mph - N/A   Overcast
11:53 PM 55.9 °F 50.0 °F 80% 30.42 in 10.0 mi East 5.8 mph - N/A   Scattered Clouds